GW6410 Weather Reports


time (UTC)temp
F
wind
direction
speed
knots
gust
knots
rain 1hr
in
rain 24hr
in
rain mn
in
humidity
%
barometer
mb
20260506024532 69 136 0.9 1.7 0.00 0.00 0.00 54 1014.7
20260506024004 69 158 0.9 2.6 0.00 0.00 0.00 54 1014.8
20260506023505 69 160 0.0 3.5 0.00 0.00 0.00 54 1014.7
20260506023014 69 106 0.0 3.5 0.00 0.00 0.00 53 1014.7
20260506022505 69 146 0.0 1.7 0.00 0.00 0.00 53 1014.7
20260506022009 69 172 0.0 1.7 0.00 0.00 0.00 54 1014.9
20260506021521 70 160 0.0 2.6 0.00 0.00 0.00 53 1014.9
20260506021007 70 205 0.0 2.6 0.00 0.00 0.00 53 1014.9
20260506020507 70 191 0.9 1.7 0.00 0.00 0.00 52 1014.9
20260506020025 70 136 0.9 1.7 0.00 0.00 0.00 52 1014.9
20260506015510 70 148 0.0 1.7 0.00 0.00 0.00 52 1014.9
20260506015011 70 203 0.0 1.7 0.00 0.00 0.00 51 1014.6
20260506014527 70 154 0.0 1.7 0.00 0.00 0.00 51 1014.7
20260506014010 71 202 0.0 1.7 0.00 0.00 0.00 51 1014.6
20260506013510 71 222 0.0 1.7 0.00 0.00 0.00 51 1014.4
20260506013008 71 146 0.0 2.6 0.00 0.00 0.00 50 1014.3
20260506012503 71 144 0.0 2.6 0.00 0.00 0.00 50 1014.1
20260506012008 71 121 0.9 2.6 0.00 0.00 0.00 51 1014.1
20260506011519 71 205 0.9 2.6 0.00 0.00 0.00 51 1014.3
20260506011009 71 223 0.9 2.6 0.00 0.00 0.00 51 1014.3
20260506010511 71 149 0.0 1.7 0.00 0.00 0.00 51 1014.4
20260506010044 71 203 0.0 1.7 0.00 0.00 0.00 51 1014.5
20260506005508 71 208 0.0 1.7 0.00 0.00 0.00 52 1014.4
20260506005007 72 173 0.9 1.7 0.00 0.00 0.00 51 1014.3
20260506004524 72 144 0.0 1.7 0.00 0.00 0.00 51 1014.4
20260506004003 72 171 0.0 0.9 0.00 0.00 0.00 50 1014.4
20260506003503 73 212 0.0 0.9 0.00 0.00 0.00 50 1014.2
20260506003008 73 134 0.0 1.7 0.00 0.00 0.00 50 1014.2
20260506002503 73 215 0.0 1.7 0.00 0.00 0.00 50 1014.2
20260506002004 73 238 0.0 0.9 0.00 0.00 0.00 50 1014.3
20260506001510 74 256 0.0 0.9 0.00 0.00 0.00 49 1014.3
20260506001006 74 257 0.0 0.9 0.00 0.00 0.00 49 1014.3
20260506000505 74 134 0.0 0.9 0.00 0.00 0.00 49 1014.4
20260506000018 74 185 0.0 0.9 0.00 0.00 0.00 49 1014.4
20260505235509 74 185 0.0 2.6 0.00 0.00 0.00 48 1014.4
20260505235011 75 155 0.0 2.6 0.00 0.00 0.00 49 1014.3
20260505234522 75 203 0.0 2.6 0.00 0.00 0.00 48 1014.3
20260505234006 75 247 0.9 1.7 0.00 0.00 0.00 48 1014.2
20260505233507 75 147 0.0 1.7 0.00 0.00 0.00 48 1014.1
20260505233025 75 135 0.0 3.5 0.00 0.00 0.00 47 1014.2
20260505232507 76 210 0.0 3.5 0.00 0.00 0.00 47 1014.2
20260505232003 76 161 0.0 2.6 0.00 0.00 0.00 46 1014.1
20260505231512 76 170 0.9 5.2 0.00 0.00 0.00 46 1014.0
20260505231004 76 191 2.6 5.2 0.00 0.00 0.00 45 1014.0
20260505230503 77 131 0.9 5.2 0.00 0.00 0.00 45 1014.1
20260505230023 77 162 1.7 5.2 0.00 0.00 0.00 44 1014.0
20260505225506 77 122 0.9 3.5 0.00 0.00 0.00 44 1014.1
20260505225006 77 197 0.9 4.3 0.00 0.00 0.00 44 1014.1
20260505224518 78 126 0.9 7.8 0.00 0.00 0.00 43 1014.0
20260505224010 79 124 0.9 7.8 0.00 0.00 0.00 43 1014.2
20260505223509 79 144 0.9 6.1 0.00 0.00 0.00 42 1014.0
20260505223021 80 222 1.7 6.1 0.00 0.00 0.00 41 1013.7
20260505222510 80 203 1.7 5.2 0.00 0.00 0.00 43 1014.2
20260505222015 80 207 2.6 5.2 0.00 0.00 0.00 39 1014.2
20260505221528 81 231 1.7 5.2 0.00 0.00 0.00 40 1014.1
20260505221009 80 140 0.9 5.2 0.00 0.00 0.00 40 1014.1
20260505220503 81 240 1.7 6.1 0.00 0.00 0.00 40 1014.1
20260505220011 81 229 1.7 6.1 0.00 0.00 0.00 40 1014.2
20260505215504 81 206 1.7 6.1 0.00 0.00 0.00 40 1014.2
20260505215006 80 143 0.9 6.1 0.00 0.00 0.00 42 1014.1
20260505214516 80 231 1.7 8.7 0.00 0.00 0.00 40 1014.0
20260505214006 81 285 2.6 8.7 0.00 0.00 0.00 40 1014.1
20260505213508 81 226 1.7 7.0 0.00 0.00 0.00 41 1014.2
20260505213024 81 151 0.9 5.2 0.00 0.00 0.00 40 1014.2
20260505212513 81 243 1.7 6.1 0.00 0.00 0.00 41 1014.2
20260505212010 80 130 1.7 6.1 0.00 0.00 0.00 40 1014.2
20260505211526 80 160 2.6 5.2 0.00 0.00 0.00 40 1014.4
20260505211009 80 105 1.7 4.3 0.00 0.00 0.00 39 1014.4
20260505210510 80 226 2.6 8.7 0.00 0.00 0.00 39 1014.4
20260505210026 79 119 2.6 11.3 0.00 0.00 0.00 39 1014.4
20260505205508 80 119 2.6 11.3 0.00 0.00 0.00 39 1014.5
20260505205007 80 276 1.7 5.2 0.00 0.00 0.00 41 1014.5
20260505204513 80 248 0.9 7.8 0.00 0.00 0.00 40 1014.5
20260505204006 80 221 2.6 7.8 0.00 0.00 0.00 39 1014.7
20260505203505 81 219 2.6 7.0 0.00 0.00 0.00 39 1014.6
20260505203026 81 131 1.7 7.8 0.00 0.00 0.00 39 1014.6
20260505202505 81 134 3.5 7.8 0.00 0.00 0.00 38 1014.7
20260505202009 81 230 1.7 7.0 0.00 0.00 0.00 39 1014.9
20260505201520 80 162 1.7 7.0 0.00 0.00 0.00 40 1014.9
20260505201005 80 214 0.9 4.3 0.00 0.00 0.00 40 1014.9
20260505200509 80 199 1.7 4.3 0.00 0.00 0.00 40 1015.0
20260505200026 80 267 0.9 5.2 0.00 0.00 0.00 41 1015.0
20260505195507 80 177 1.7 5.2 0.00 0.00 0.00 40 1015.2
20260505195009 80 163 1.7 5.2 0.00 0.00 0.00 40 1015.1
20260505194529 79 115 2.6 5.2 0.00 0.00 0.00 41 1015.1
20260505194011 79 250 1.7 5.2 0.00 0.00 0.00 43 1015.1
20260505193502 79 281 1.7 5.2 0.00 0.00 0.00 40 1015.4
20260505193014 79 141 2.6 5.2 0.00 0.00 0.00 39 1015.4
20260505192506 80 230 1.7 5.2 0.00 0.00 0.00 39 1015.3
20260505192012 80 138 1.7 5.2 0.00 0.00 0.00 40 1015.4
20260505191520 80 111 1.7 5.2 0.00 0.00 0.00 40 1015.4
20260505191009 79 174 0.9 10.4 0.00 0.00 0.00 43 1015.5
20260505190512 78 127 4.3 10.4 0.00 0.00 0.00 40 1015.8
20260505190032 79 84 1.7 8.7 0.00 0.00 0.00 40 1015.9
20260505185507 79 224 3.5 8.7 0.00 0.00 0.00 39 1015.8
20260505185009 79 130 3.5 8.7 0.00 0.00 0.00 41 1015.9
20260505184526 80 112 2.6 7.8 0.00 0.00 0.00 40 1015.8
20260505184009 80 162 3.5 7.8 0.00 0.00 0.00 39 1016.0
20260505183513 79 106 2.6 7.0 0.00 0.00 0.00 41 1016.1
20260505183031 79 281 1.7 7.8 0.00 0.00 0.00 40 1016.2
20260505182509 78 198 2.6 7.8 0.00 0.00 0.00 41 1016.2
20260505182008 78 219 0.9 8.7 0.00 0.00 0.00 40 1016.3
20260505181515 78 141 2.6 9.6 0.00 0.00 0.00 41 1016.3
20260505181006 78 184 3.5 9.6 0.00 0.00 0.00 41 1016.4
20260505180508 79 164 2.6 7.8 0.00 0.00 0.00 41 1016.6
20260505180021 79 160 2.6 6.1 0.00 0.00 0.00 40 1016.6
20260505175505 79 145 2.6 7.8 0.00 0.00 0.00 39 1016.5
20260505175014 78 310 2.6 7.8 0.00 0.00 0.00 39 1016.4
20260505174523 78 133 1.7 8.7 0.00 0.00 0.00 42 1016.6
20260505174012 78 187 2.6 8.7 0.00 0.00 0.00 40 1016.6
20260505173509 78 150 2.6 7.0 0.00 0.00 0.00 42 1016.6
20260505173036 78 26 2.6 5.2 0.00 0.00 0.00 43 1016.7
20260505172511 78 208 1.7 5.2 0.00 0.00 0.00 44 1016.8
20260505172015 78 101 1.7 5.2 0.00 0.00 0.00 43 1016.6
20260505171542 77 137 2.6 5.2 0.00 0.00 0.00 44 1016.6
20260505171010 76 174 0.9 9.6 0.00 0.00 0.00 45 1016.5
20260505170509 77 145 3.5 9.6 0.00 0.00 0.00 40 1016.7
20260505170020 76 141 1.7 7.8 0.00 0.00 0.00 45 1017.0
20260505165509 77 233 2.6 7.8 0.00 0.00 0.00 44 1017.0
20260505165008 77 121 2.6 7.8 0.00 0.00 0.00 45 1017.0
20260505164519 77 169 2.6 7.8 0.00 0.00 0.00 42 1016.9
20260505164009 77 256 2.6 6.1 0.00 0.00 0.00 41 1017.2
20260505163510 77 148 1.7 5.2 0.00 0.00 0.00 48 1017.1
20260505163024 76 229 2.6 7.8 0.00 0.00 0.00 45 1017.3
20260505163009 76 231 2.6 7.8 0.00 0.00 0.00 45 1017.3
20260505162503 76 134 4.3 8.7 0.00 0.00 0.00 45 1017.4
20260505162003 76 236 1.7 8.7 0.00 0.00 0.00 47 1017.3
20260505161506 76 255 3.5 7.8 0.00 0.00 0.00 47 1017.3
20260505161003 76 101 1.7 7.0 0.00 0.00 0.00 47 1017.2
20260505160506 75 171 1.7 7.0 0.00 0.00 0.00 47 1017.4
20260505153004 74 136 1.7 3.5 0.00 0.00 0.00 53 1017.4
20260505152504 73 204 1.7 4.3 0.00 0.00 0.00 56 1017.5
20260505152004 72 182 1.7 4.3 0.00 0.00 0.00 56 1017.6
20260505151504 72 136 0.9 4.3 0.00 0.00 0.00 56 1017.5
20260505151003 72 164 0.9 4.3 0.00 0.00 0.00 57 1017.5
20260505150507 72 335 0.9 3.5 0.00 0.00 0.00 62 1017.3
20260505140504 64 264 0.0 2.6 0.00 0.00 0.00 69 1017.4
20260505125004 55 149 0.0 0.0 0.00 0.00 0.00 85 1016.7
20260505124510 54 149 0.0 0.0 0.00 0.00 0.00 86 1016.7
20260505124006 53 149 0.0 0.0 0.00 0.00 0.00 88 1016.6
20260505123504 53 149 0.0 0.0 0.00 0.00 0.00 89 1016.6
20260505123013 52 149 0.0 0.0 0.00 0.00 0.00 90 1016.7
20260505122503 51 149 0.0 0.0 0.00 0.00 0.00 90 1016.8
20260505122007 51 149 0.0 0.0 0.00 0.00 0.00 90 1016.6
20260505121515 50 149 0.0 0.0 0.00 0.00 0.00 90 1016.6
20260505121009 50 149 0.0 0.0 0.00 0.00 0.00 90 1016.4
20260505120505 49 149 0.0 0.0 0.00 0.00 0.00 90 1016.4
20260505120048 49 149 0.0 0.0 0.00 0.00 0.00 90 1016.4
20260505115508 48 149 0.0 0.0 0.00 0.00 0.00 90 1016.4
20260505115010 48 149 0.0 0.0 0.00 0.00 0.00 90 1016.3
20260505114526 48 149 0.0 0.0 0.00 0.00 0.00 89 1016.2
20260505114010 48 149 0.0 0.0 0.00 0.00 0.00 89 1016.1
20260505113505 48 149 0.0 0.0 0.00 0.00 0.00 89 1016.1
20260505113010 48 149 0.0 0.0 0.00 0.00 0.00 89 1016.0
20260505112503 48 149 0.0 0.0 0.00 0.00 0.00 89 1016.1
20260505112004 48 149 0.0 0.0 0.00 0.00 0.00 89 1016.0
20260505111512 48 149 0.0 0.0 0.00 0.00 0.00 89 1015.9
20260505111009 48 149 0.0 0.9 0.00 0.00 0.00 89 1015.8
20260505110507 48 148 0.0 0.9 0.00 0.00 0.00 89 1015.8
20260505102008 47 323 0.0 0.0 0.00 0.00 0.00 89 1015.8
20260505101519 47 323 0.0 0.0 0.00 0.00 0.00 89 1015.8
20260505101005 47 323 0.0 0.0 0.00 0.00 0.00 88 1015.7
20260505100505 47 323 0.0 0.0 0.00 0.00 0.00 88 1015.8
20260505100022 47 323 0.0 0.0 0.00 0.00 0.00 88 1015.8
20260505095504 47 323 0.0 0.0 0.00 0.00 0.00 88 1015.7
20260505095008 47 323 0.0 0.0 0.00 0.00 0.00 87 1015.7
20260505094517 47 323 0.0 0.0 0.00 0.00 0.00 87 1015.7
20260505094006 47 323 0.0 0.0 0.00 0.00 0.00 87 1015.7
20260505093510 48 323 0.0 0.0 0.00 0.00 0.00 86 1015.6
20260505093025 48 323 0.0 0.0 0.00 0.00 0.00 86 1015.7
20260505092507 48 323 0.0 0.0 0.00 0.00 0.00 86 1015.8
20260505092013 48 323 0.0 0.0 0.00 0.00 0.00 86 1015.9
20260505091530 48 323 0.0 0.0 0.00 0.00 0.00 86 1016.0
20260505091009 48 323 0.0 0.0 0.00 0.00 0.00 86 1016.2
20260505090508 48 323 0.0 0.0 0.00 0.00 0.00 86 1016.1
20260505090026 48 323 0.0 0.0 0.00 0.00 0.00 86 1016.0
20260505085506 48 323 0.0 0.0 0.00 0.00 0.00 87 1016.1
20260505085004 48 323 0.0 0.0 0.00 0.00 0.00 87 1016.0
20260505084516 48 323 0.0 0.0 0.00 0.00 0.00 87 1016.1
20260505084007 48 323 0.0 0.0 0.00 0.00 0.00 87 1016.1
20260505083507 49 323 0.0 0.9 0.00 0.00 0.00 87 1016.2
20260505083027 48 323 0.0 0.9 0.00 0.00 0.00 86 1016.1
20260505082507 48 113 0.0 0.0 0.00 0.00 0.00 86 1016.1
20260505082008 49 113 0.0 0.9 0.00 0.00 0.00 86 1016.0
20260505081528 49 113 0.0 0.9 0.00 0.00 0.00 87 1015.8
20260505081011 49 113 0.0 0.9 0.00 0.00 0.00 86 1015.8
20260505080508 49 113 0.0 0.9 0.00 0.00 0.00 86 1015.8
20260505080033 49 234 0.0 0.0 0.00 0.00 0.00 86 1015.6
20260505075512 49 234 0.0 0.0 0.00 0.00 0.00 86 1015.5
20260505075012 50 234 0.0 0.0 0.00 0.00 0.00 86 1015.5
20260505074510 50 234 0.0 0.0 0.00 0.00 0.00 86 1015.5
20260505074005 50 234 0.0 0.0 0.00 0.00 0.00 86 1015.6
20260505073506 50 234 0.0 0.0 0.00 0.00 0.00 85 1015.5
20260505073029 50 234 0.0 0.0 0.00 0.00 0.00 85 1015.6
20260505072511 50 234 0.0 0.0 0.00 0.00 0.00 84 1015.5
20260505072007 50 234 0.0 0.0 0.00 0.00 0.00 84 1015.6
20260505071524 50 234 0.0 0.0 0.00 0.00 0.00 85 1015.7
20260505071006 51 234 0.0 0.0 0.00 0.00 0.00 85 1015.7
20260505070512 51 234 0.0 0.0 0.00 0.00 0.00 85 1015.6
20260505070026 51 234 0.0 0.0 0.00 0.00 0.00 85 1015.6
20260505065508 51 234 0.0 0.0 0.00 0.00 0.00 84 1015.6
20260505065012 51 234 0.0 0.0 0.00 0.00 0.00 83 1015.7
20260505064539 51 234 0.0 0.0 0.00 0.00 0.00 83 1015.7
20260505064010 51 234 0.0 0.0 0.00 0.00 0.00 84 1015.7
20260505063509 51 234 0.0 0.0 0.00 0.00 0.00 82 1015.7
20260505063029 52 234 0.0 0.9 0.00 0.00 0.00 82 1015.7
20260505062505 51 234 0.0 0.9 0.00 0.00 0.00 84 1015.8
20260505062006 51 242 0.0 0.9 0.00 0.00 0.00 85 1015.8
20260505061530 51 242 0.0 0.0 0.00 0.00 0.00 85 1015.8
20260505061007 51 242 0.0 0.9 0.00 0.00 0.00 85 1015.8
20260505060508 51 242 0.0 0.9 0.00 0.00 0.00 85 1015.8
20260505060007 51 157 0.0 0.0 0.00 0.00 0.00 85 1015.9
20260505055512 51 157 0.0 0.0 0.00 0.00 0.00 84 1015.9
20260505055003 51 157 0.0 0.0 0.00 0.00 0.00 84 1015.9
20260505054505 51 157 0.0 0.0 0.00 0.00 0.00 84 1015.9
20260505054003 52 157 0.0 0.0 0.00 0.00 0.00 84 1016.1
20260505053504 52 157 0.0 0.0 0.00 0.00 0.00 83 1016.0
20260505053010 52 158 0.0 0.0 0.00 0.00 0.00 82 1016.1
20260505052503 52 157 0.0 0.0 0.00 0.00 0.00 82 1016.0
20260505052006 52 157 0.0 0.0 0.00 0.00 0.00 82 1016.0
20260505051517 52 157 0.0 0.0 0.00 0.00 0.00 82 1016.0
20260505051009 53 157 0.0 0.0 0.00 0.00 0.00 81 1016.1
20260505050506 53 157 0.0 0.0 0.00 0.00 0.00 81 1016.0
20260505041514 56 233 0.0 0.0 0.00 0.00 0.00 77 1016.1
20260505041006 56 233 0.0 0.0 0.00 0.00 0.00 73 1016.1
20260505040506 56 233 0.0 0.9 0.00 0.00 0.00 75 1016.1
20260505040018 56 233 0.0 0.9 0.00 0.00 0.00 75 1016.1
20260505035507 56 233 0.0 0.9 0.00 0.00 0.00 74 1016.1
20260505035007 56 233 0.0 0.9 0.00 0.00 0.00 73 1016.2
20260505034526 56 234 0.0 0.0 0.00 0.00 0.00 74 1016.3
20260505034011 56 234 0.0 0.0 0.00 0.00 0.00 76 1016.3
20260505033503 56 234 0.0 0.0 0.00 0.00 0.00 77 1016.3
20260505033006 56 234 0.0 0.0 0.00 0.00 0.00 77 1016.3
20260505032503 56 234 0.0 0.9 0.00 0.00 0.00 77 1016.3
20260505032003 56 234 0.0 0.9 0.00 0.00 0.00 75 1016.3
20260505031526 56 234 0.0 0.9 0.00 0.00 0.00 77 1016.3
20260505031003 56 234 0.0 0.0 0.00 0.00 0.00 78 1016.3
20260505030504 56 234 0.0 0.9 0.00 0.00 0.00 77 1016.3
20260505030015 56 234 0.0 0.9 0.00 0.00 0.00 76 1016.4
20260505025504 56 234 0.0 0.0 0.00 0.00 0.00 77 1016.3
20260505025008 56 234 0.0 0.0 0.00 0.00 0.00 76 1016.3